Regional Weather Roundup
Issued by NWS

Home | Current Version | Previous Version | Text Only | Print | Product List | Glossary Off
Versions: 1 2 3 4 5 6 7 8 9 10 11 12 13 14 15 16 17 18 19 20 21 22 23 24 25 26 27 28 29 30 31 32 33 34 35 36 37 38 39 40 41 42 43 44 45 46 47 48 49 50

000
ASUS44 KMEG 070300
RWRTN
TENNESSEE HOURLY STATE WEATHER ROUNDUP
NATIONAL WEATHER SERVICE MEMPHIS TN
900 PM CST SAT FEB 06 2016

TNZ002-004-019-021-049-052-054-088>092-070400-
WEST TENNESSEE

CITY           SKY/WX    TMP DP  RH WIND       PRES   REMARKS
MEMPHIS INTL   PTCLDY    40  24  53 CALM      30.31S
NWS MEMPHIS      N/A     36 N/A N/A MISG        N/A
JACKSON        CLEAR     31  25  78 SW5       30.30F WCI  26
DYERSBURG      CLEAR     37  23  56 CALM      30.32S
$$

TNZ008-025-027-028-033-062-065-066-070400-
NORTH MIDDLE TENNESSEE

CITY           SKY/WX    TMP DP  RH WIND       PRES   REMARKS
NASHVILLE      PTCLDY    37  23  56 S5        30.29F WCI  33
CLARKSVILLE    CLEAR     38  23  55 CALM      30.28F
CROSSVILLE     CLOUDY    35  22  58 CALM      30.26S
$$

TNZ061-075-076-078-094-096-097-070400-
SOUTH MIDDLE TENNESSEE

CITY           SKY/WX    TMP DP  RH WIND       PRES   REMARKS
$$

TNZ017-018-042-046-047-070400-
NORTHEAST TENNESSEE

CITY           SKY/WX    TMP DP  RH WIND       PRES   REMARKS
TRI CITIES     CLOUDY    31  22  69 CALM      30.26S
$$

TNZ012-013-036-069-073-074-070400-
CENTRAL EAST TENNESSEE

CITY           SKY/WX    TMP DP  RH WIND       PRES   REMARKS
KNOXVILLE      MOCLDY    38  22  52 NE3       30.27
OAK RIDGE      CLOUDY    38  27  64 CALM      30.29S
$$

TNZ083-085-099-070400-
SOUTHEAST TENNESSEE

CITY           SKY/WX    TMP DP  RH WIND       PRES   REMARKS
CHATTANOOGA    MOCLDY    40  20  44 CALM      30.27F
$$

SKY/WX REPORTED AS FAIR MEANS FEW OR NO CLOUDS BELOW
12 THOUSAND FEET.




USA.gov is the U.S. government's official web portal to all federal, state and local government web resources and services.